Weather History for Fryeburg, ME

Change the Weather History Date:

Friday, May 17, 2013

  Actual Average Record
Temperature  
Mean Temperature 55 °F -  
Max Temperature 66 °F 65 °F 75 °F (1999)
Min Temperature 44 °F 38 °F 26 °F (2003)
Degree Days  
Heating Degree Days 10    
Growing Degree Days 5 (Base 50)    
Moisture  
Dew Point 37 °F    
Average Humidity 53    
Maximum Humidity 85    
Minimum Humidity 29    
Precipitation  
Precipitation 0.00 in - - ()
Sea Level Pressure  
Sea Level Pressure 30.02 in    
Wind  
Wind Speed 6 mph (NNW)    
Max Wind Speed 15 mph    
Max Gust Speed 26 mph    
Visibility 10 miles    
Events      
Averages and records for this station are not official NWS values.
T = Trace of Precipitation, MM = Missing Value Source: NWS Daily Summary

Daily Weather History Graph

Daily Weather History Graph

Search for Another Location

Airport:

Trip Planner

Search our weather history database for the weather conditions in past years. The results will help you decide how hot, cold, wet, or windy it might be!

Date:

Astronomy

May. 17, 2013 Rise Set
Actual Time 5:15 AM EDT 8:05 PM EDT
Civil Twilight 4:41 AM EDT 8:39 PM EDT
Nautical Twilight 3:59 AM EDT 9:22 PM EDT
Astronomical Twilight 3:09 AM EDT 10:12 PM EDT
Moon 11:50 AM EDT (5/17) 12:51 AM EDT (5/17)
Length of Visible Light 15h 57m
Length of Day
14h 50m
Waxing Crescent, 45% of the Moon is Illuminated
May 17
Waxing Crescent
May 18
First Quarter
May 25
Full
May 31
Last Quarter
Jun 8
New

Hourly Weather History & Observations

Time (EDT) Temp. Dew Point Humidity Pressure Visibility Wind Dir Wind Speed Gust Speed Precip Events Conditions
12:54 AM 53.1 °F 37.9 °F 57% 29.83 in 10.0 mi NW 3.5 mph - N/A   Mostly Cloudy
1:54 AM 48.9 °F 39.0 °F 69% 29.83 in 10.0 mi Calm Calm - N/A   Mostly Cloudy
2:54 AM 51.1 °F 36.0 °F 56% 29.84 in 10.0 mi WNW 10.4 mph - N/A   Partly Cloudy
3:54 AM 48.0 °F 37.0 °F 66% 29.86 in 10.0 mi West 5.8 mph - N/A   Clear
4:54 AM 46.9 °F 36.0 °F 66% 29.88 in 10.0 mi Variable 3.5 mph - N/A   Clear
5:54 AM 48.0 °F 37.0 °F 66% 29.91 in 10.0 mi WNW 4.6 mph - N/A   Clear
6:54 AM 50.0 °F 37.9 °F 63% 29.93 in 10.0 mi Variable 5.8 mph - N/A   Clear
7:54 AM 54.0 °F 39.0 °F 57% 29.96 in 10.0 mi Variable 3.5 mph - N/A   Mostly Cloudy
8:54 AM 55.0 °F 39.0 °F 55% 29.99 in 10.0 mi Calm Calm - N/A   Overcast
9:54 AM 57.9 °F 37.9 °F 47% 30.01 in 10.0 mi NNW 8.1 mph 17.3 mph N/A   Overcast
10:54 AM 61.0 °F 37.0 °F 41% 30.02 in 10.0 mi North 11.5 mph 21.9 mph N/A   Partly Cloudy
11:54 AM 61.0 °F 36.0 °F 39% 30.03 in 10.0 mi North 13.8 mph 26.5 mph N/A   Clear
12:54 PM 63.0 °F 37.0 °F 38% 30.03 in 10.0 mi NNW 15.0 mph 21.9 mph N/A   Partly Cloudy
1:54 PM 64.9 °F 34.0 °F 32% 30.05 in 10.0 mi North 15.0 mph 23.0 mph N/A   Clear
3:54 PM 66.0 °F 33.1 °F 29% 30.07 in 10.0 mi NNW 13.8 mph 19.6 mph N/A   Mostly Cloudy
4:54 PM 63.0 °F 32.0 °F 31% 30.09 in 10.0 mi North 9.2 mph - N/A   Scattered Clouds
5:54 PM 63.0 °F 32.0 °F 31% 30.10 in 10.0 mi North 11.5 mph - N/A   Clear
6:54 PM 62.1 °F 33.1 °F 34% 30.13 in 10.0 mi North 9.2 mph - N/A   Clear
7:54 PM 59.0 °F 34.0 °F 39% 30.15 in 10.0 mi NW 3.5 mph - N/A   Mostly Cloudy
8:54 PM 51.1 °F 39.9 °F 66% 30.18 in 10.0 mi Calm Calm - N/A   Mostly Cloudy
9:54 PM 48.0 °F 39.0 °F 71% 30.20 in 10.0 mi WNW 3.5 mph - N/A   Mostly Cloudy
10:54 PM 44.1 °F 39.9 °F 85% 30.22 in 10.0 mi Calm Calm - N/A   Mostly Cloudy
11:54 PM 46.9 °F 42.1 °F 83% 30.22 in 10.0 mi Calm Calm - N/A   Overcast